Date String (YYYY-MM-DD hh:mm:ss) UTC,Instrument flags,absolute air pressure of the measurement (hPa),sample flow rate (lpm),inlet stack bypass flow (lpm),air temperature of the measurement (°C),ambient temperature measured by the external sensor (°C),aerosol sample conditioner tube jacket temperature (°C),OPC LED temperature (°C),internal box temperature (°C),relative humidity of the measurement (%),span deviation,mass concentration of particles derived from Lorenz-Mie calculation of OPC scattering (μg/m³),mass concentration of particles derived from Lorenz-Mie calculation of OPC scattering (μg/m³),mass concentration of particles derived from Lorenz-Mie calculation of OPC scattering (μg/m³)
DateTimeUTC,F1_M11,P_M11,Q1_M11,Q2_M11,T1_M11,T2_M11,T3_M11,T4_M11,T5_M11,U1_M11,ZSPAN_M11,X2_M11,X0_M11,X1_M11
2024-01-20 22:00:00,SystemResetWarning,0824.7,4.99,000.00,019.8,019.2,000.0,028.0,021.1,15.3,0001.7,0016.75,0022.98,0015.80
2024-01-20 22:01:00,SystemResetWarning,0824.7,5.00,000.00,019.8,019.2,000.0,028.0,021.0,15.4,0001.6,0016.70,0023.14,0015.79
2024-01-20 22:02:00,SystemResetWarning,0824.7,5.00,000.00,019.8,019.2,000.0,028.0,021.0,15.3,0001.3,0016.67,0023.17,0015.76
2024-01-20 22:03:00,SystemResetWarning,0824.7,5.00,000.00,019.8,019.2,000.0,028.0,021.1,15.3,0000.7,0016.69,0023.12,0015.79
2024-01-20 22:04:00,SystemResetWarning,0824.7,5.00,000.00,019.8,019.2,000.0,028.0,021.0,15.2,0000.7,0016.73,0023.52,0015.82
2024-01-20 22:05:00,SystemResetWarning,0824.7,5.00,000.00,019.8,019.2,000.0,028.0,021.0,15.2,0000.6,0016.70,0023.19,0015.83
2024-01-20 22:06:00,SystemResetWarning,0824.8,5.00,000.00,019.8,019.2,000.0,028.0,021.0,15.3,0000.8,0016.66,0023.06,0015.81
2024-01-20 22:07:00,SystemResetWarning,0824.8,4.99,000.00,019.8,019.2,000.0,028.1,021.0,15.3,0001.3,0016.65,0022.93,0015.80
2024-01-20 22:08:00,SystemResetWarning,0824.7,5.00,000.00,019.8,019.2,000.0,028.1,021.0,15.3,0001.4,0016.63,0023.55,0015.82
2024-01-20 22:09:00,SystemResetWarning,0824.7,5.00,000.00,019.8,019.2,000.0,028.1,021.0,15.3,0001.0,0016.63,0023.92,0015.82
2024-01-20 22:10:00,SystemResetWarning,0824.7,5.00,000.00,019.8,019.1,000.0,028.1,021.0,15.4,0001.1,0016.61,0024.29,0015.83
2024-01-20 22:11:00,SystemResetWarning,0824.8,4.99,000.00,019.8,019.1,000.0,028.1,021.0,15.3,0001.4,0016.64,0025.40,0015.84
2024-01-20 22:12:00,SystemResetWarning,0824.8,5.00,000.00,019.8,019.1,000.0,028.1,021.0,15.3,0001.5,0016.64,0025.85,0015.85
2024-01-20 22:13:00,SystemResetWarning,0824.7,5.00,000.00,019.8,019.1,000.0,028.1,021.0,15.2,0001.5,0016.68,0026.04,0015.86
2024-01-20 22:14:00,SystemResetWarning,0824.7,5.00,000.00,019.8,019.1,000.0,028.1,020.9,15.2,0001.9,0016.70,0026.07,0015.87
2024-01-20 22:15:00,SystemResetWarning,0824.7,5.00,000.00,019.8,019.0,000.0,028.1,020.9,15.2,0002.1,0016.74,0025.55,0015.90
2024-01-20 22:16:00,SystemResetWarning,0824.7,5.00,000.00,019.8,019.0,000.0,028.1,020.9,15.2,0002.2,0016.80,0025.46,0015.94
2024-01-20 22:17:00,SystemResetWarning,0824.7,5.01,000.00,019.8,019.0,000.0,028.1,020.9,15.3,0002.3,0016.85,0025.64,0015.98
2024-01-20 22:18:00,SystemResetWarning,0824.7,5.01,000.00,019.8,019.0,000.0,028.1,020.9,15.3,0002.0,0016.86,0025.86,0016.03
2024-01-20 22:19:00,SystemResetWarning,0824.7,5.00,000.00,019.8,019.0,000.0,028.1,021.0,15.2,0001.9,0016.95,0025.51,0016.09
2024-01-20 22:20:00,SystemResetWarning,0824.7,4.99,000.00,019.8,019.1,000.0,028.1,021.0,15.3,0002.3,0017.07,0025.94,0016.17
2024-01-20 22:21:00,SystemResetWarning,0824.7,4.99,000.00,019.8,019.1,000.0,028.1,021.0,15.3,0002.5,0017.14,0026.67,0016.23
2024-01-20 22:22:00,SystemResetWarning,0824.7,5.00,000.00,019.8,019.1,000.0,028.1,021.0,15.3,0002.4,0017.18,0026.53,0016.27
2024-01-20 22:23:00,SystemResetWarning,0824.7,5.00,000.00,019.8,019.1,000.0,028.1,021.0,15.2,0002.1,0017.20,0025.66,0016.31
2024-01-20 22:24:00,SystemResetWarning,0824.7,5.01,000.00,019.8,019.1,000.0,028.1,021.0,15.3,0002.1,0017.24,0025.65,0016.37
2024-01-20 22:25:00,SystemResetWarning,0824.7,5.01,000.00,019.8,019.1,000.0,028.1,021.0,15.3,0002.0,0017.30,0025.97,0016.42
2024-01-20 22:26:00,SystemResetWarning,0824.7,5.01,000.00,019.8,019.1,000.0,028.1,021.0,15.3,0002.0,0017.29,0025.94,0016.43
2024-01-20 22:27:00,SystemResetWarning,0824.7,5.00,000.00,019.8,019.1,000.0,028.1,021.0,15.2,0001.8,0017.34,0026.48,0016.45
2024-01-20 22:28:00,SystemResetWarning,0824.7,5.00,000.00,019.8,019.1,000.0,028.1,021.0,15.2,0001.5,0017.39,0027.03,0016.49
2024-01-20 22:29:00,SystemResetWarning,0824.7,5.00,000.00,019.8,019.1,000.0,028.1,021.0,15.2,0001.5,0017.40,0026.81,0016.48
2024-01-20 22:30:00,SystemResetWarning,0824.7,5.00,000.00,019.8,019.1,000.0,028.1,021.0,15.1,0001.5,0017.43,0026.74,0016.50
2024-01-20 22:31:00,SystemResetWarning,0824.7,5.00,000.00,019.8,019.0,000.0,028.1,020.9,15.1,0001.5,0017.34,0025.72,0016.48
2024-01-20 22:32:00,SystemResetWarning,0824.7,5.01,000.00,019.8,019.0,000.0,028.1,020.9,15.1,0001.3,0017.30,0025.20,0016.46
2024-01-20 22:33:00,SystemResetWarning,0824.7,5.01,000.00,019.8,019.0,000.0,028.1,020.9,15.1,0001.5,0017.30,0024.14,0016.48
2024-01-20 22:34:00,SystemResetWarning,0824.7,5.01,000.00,019.7,019.0,000.0,028.1,020.9,15.1,0001.8,0017.34,0025.05,0016.48
2024-01-20 22:35:00,SystemResetWarning,0824.7,4.99,000.00,019.7,018.9,000.0,028.1,020.8,15.0,0002.1,0017.38,0025.66,0016.50
2024-01-20 22:36:00,SystemResetWarning,0824.7,4.99,000.00,019.7,019.0,000.0,028.1,020.9,15.0,0002.1,0017.38,0025.27,0016.52
2024-01-20 22:37:00,SystemResetWarning,0824.7,5.00,000.00,019.7,019.0,000.0,028.1,020.9,15.0,0001.8,0017.39,0025.20,0016.54
2024-01-20 22:38:00,SystemResetWarning,0824.7,5.01,000.00,019.7,019.0,000.0,028.1,020.9,15.1,0002.2,0017.44,0024.99,0016.58
2024-01-20 22:39:00,SystemResetWarning,0824.7,5.00,000.00,019.7,019.0,000.0,028.1,020.9,15.0,0002.6,0017.45,0024.53,0016.59
2024-01-20 22:40:00,SystemResetWarning,0824.7,5.00,000.00,019.7,019.0,000.0,028.1,020.9,15.1,0002.6,0017.53,0024.83,0016.66
2024-01-20 22:41:00,SystemResetWarning,0824.7,5.00,000.00,019.7,019.0,000.0,028.1,020.9,15.1,0002.8,0017.59,0025.35,0016.69
2024-01-20 22:42:00,SystemResetWarning,0824.7,5.00,000.00,019.7,019.0,000.0,028.1,020.9,15.1,0002.7,0017.63,0025.76,0016.73
2024-01-20 22:43:00,SystemResetWarning,0824.7,5.00,000.00,019.7,019.0,000.0,028.1,020.9,15.0,0002.8,0017.68,0025.38,0016.78
2024-01-20 22:44:00,SystemResetWarning,0824.7,5.00,000.00,019.7,019.0,000.0,028.1,020.9,15.0,0002.6,0017.72,0025.53,0016.81
2024-01-20 22:45:00,SystemResetWarning,0824.7,5.00,000.00,019.7,019.0,000.0,028.1,020.9,15.0,0002.2,0017.74,0025.20,0016.86
2024-01-20 22:46:00,SystemResetWarning,0824.7,4.99,000.00,019.7,019.0,000.0,028.1,020.9,15.0,0002.0,0017.79,0025.17,0016.90
2024-01-20 22:47:00,SystemResetWarning,0824.7,5.00,000.00,019.7,019.0,000.0,028.1,020.9,15.0,0002.0,0017.82,0026.10,0016.92
2024-01-20 22:48:00,SystemResetWarning,0824.7,5.00,000.00,019.7,019.0,000.0,028.1,020.9,15.1,0002.3,0017.83,0026.05,0016.94
2024-01-20 22:49:00,SystemResetWarning,0824.7,5.00,000.00,019.7,019.0,000.0,028.1,020.9,15.2,0002.3,0017.80,0026.14,0016.94
2024-01-20 22:50:00,SystemResetWarning,0824.7,5.00,000.00,019.8,019.0,000.0,028.1,021.0,15.2,0002.1,0017.77,0026.11,0016.94
2024-01-20 22:51:00,SystemResetWarning,0824.8,4.99,000.00,019.8,019.0,000.0,028.1,021.0,15.1,0002.0,0017.73,0026.89,0016.93
2024-01-20 22:52:00,SystemResetWarning,0824.8,5.00,000.00,019.8,019.1,000.0,028.1,021.0,15.1,0001.8,0017.67,0026.98,0016.90
2024-01-20 22:53:00,SystemResetWarning,0824.8,5.00,000.00,019.8,019.1,000.0,028.1,021.1,15.0,0001.6,0017.71,0027.07,0016.90
2024-01-20 22:54:00,SystemResetWarning,0824.8,5.00,000.00,019.8,019.1,000.0,028.1,021.1,15.0,0001.5,0017.76,0027.25,0016.90
2024-01-20 22:55:00,SystemResetWarning,0824.8,5.00,000.00,019.8,019.2,000.0,028.1,021.1,15.0,0001.3,0017.74,0027.36,0016.88
2024-01-20 22:56:00,SystemResetWarning,0824.7,5.00,000.00,019.8,019.2,000.0,028.1,021.1,15.0,0001.4,0017.71,0026.76,0016.85
2024-01-20 22:57:00,SystemResetWarning,0824.7,5.00,000.00,019.8,019.2,000.0,028.1,021.1,14.9,0001.4,0017.62,0026.26,0016.80
2024-01-20 22:58:00,SystemResetWarning,0824.7,5.00,000.00,019.9,019.2,000.0,028.1,021.1,15.0,0001.3,0017.52,0024.82,0016.76
2024-01-20 22:59:00,SystemResetWarning,0824.7,5.00,000.00,019.9,019.2,000.0,028.2,021.1,15.0,0001.0,0017.51,0025.26,0016.71
